This demonstration page uses our WeatherBlox Daily Observations layout. Learn more.

38.80484, -77.04692

Hourly Observations for August 6, 2020

Temp ( °F °C ) Dew Point ( °F °C ) Humidity (%) Winds ( mph kmh ) Pressure ( in mb ) Visibility ( mi km ) Precip ( " mm )
12:52 am 00:52 Cloudy 80 26.7 67 19.4 64 64 Calm 30.06 1018 10 16.0934 0 0
1:52 am 01:52 Cloudy 79 26.1 69 20.6 72 72 Calm 30.05 1018 10 16.0934 0 0
2:50 am 02:50 Cloudy with Nearby Thunderstorms 79 26 70 21 74 74 SE 3 6 30.04 1017 10 16.0934 0 0
2:52 am 02:52 Cloudy with Nearby Thunderstorms 79 26.1 69 20.6 72 72 SE 3 6 30.04 1017 10 16.0934 0 0
3:09 am 03:09 Cloudy 78 25.6 69 20.6 74 74 SSE 3 6 30.05 1018 10 16.0934 0 0
3:28 am 03:28 Cloudy with Nearby Thunderstorms 78 25.6 70 21.1 76 76 WSW 7 11 30.05 1018 10 16.0934 0 0
3:52 am 03:52 Cloudy with Nearby Thunderstorms 77 25 69 20.6 77 77 NW 13 20 30.04 1017 10 16.0934 0.001 0.001
4:11 am 04:11 Cloudy with Light Thunderstorms 75 23.9 69 20.6 82 82 NNW 13 20 30.05 1018 10 16.0934 0.001 0.001
4:32 am 04:32 Cloudy with Thunderstorms 74 23.3 68 20 82 82 NNW 9 15 30.06 1018 10 16.0934 0.001 0.001
4:52 am 04:52 Cloudy with Heavy Thunderstorms 74 23.3 68 20 82 82 Calm 30.07 1018 3 4.82802 0.03 0.762
5:46 am 05:46 Mostly Cloudy 73 23 70 21 89 89 NNW 6 9 30.06 1018 10 16.0934 0.13 3.302
5:52 am 05:52 Mostly Cloudy 73 22.8 70 21.1 90 90 N 7 11 30.06 1018 10 16.0934 0.13 3.302
6:52 am 06:52 Mostly Cloudy 74 23.3 70 21.1 88 88 NE 8 13 30.06 1018 10 16.0934 0 0
7:52 am 07:52 Cloudy 74 23.3 70 21.1 88 88 NNE 7 11 30.07 1018 10 16.0934 0 0
8:52 am 08:52 Cloudy 75 23.9 71 21.7 88 88 NNE 6 9 30.09 1019 10 16.0934 0 0
9:52 am 09:52 Mostly Cloudy 78 25.6 71 21.7 79 79 NE 6 9 30.09 1019 10 16.0934 0 0
10:52 am 10:52 Partly Cloudy 80 26.7 71 21.7 74 74 NE 6 9 30.09 1019 10 16.0934 0 0
11:52 am 11:52 Mostly Cloudy 83 28.3 72 22.2 70 70 NE 8 13 30.09 1019 10 16.0934 0 0
12:52 pm 12:52 Mostly Cloudy 84 28.9 71 21.7 65 65 NE 8 13 30.08 1019 10 16.0934 0 0
1:52 pm 13:52 Mostly Cloudy 86 30 72 22.2 63 63 NE 8 13 30.07 1018 10 16.0934 0 0
2:52 pm 14:52 Mostly Cloudy 86 30 73 22.8 65 65 ENE 10 17 30.04 1017 10 16.0934 0 0
3:52 pm 15:52 Mostly Cloudy 83 28.3 71 21.7 67 67 ENE 13 20 30.03 1017 10 16.0934 0 0
4:18 pm 16:18 Cloudy with Light Thunderstorms 81 27.2 71 21.7 72 72 ENE 10 17 30.03 1017 8 12.87472 0.001 0.001
4:52 pm 16:52 Cloudy with Heavy Thunderstorms 80 26.7 72 22.2 76 76 E 7 11 30.04 1017 6 9.65604 0.1 2.54
5:08 pm 17:08 Cloudy with Heavy Thunderstorms 78 25.6 73 22.8 85 85 NNW 3 6 30.06 1018 1.75 2.816345 0.2 5.08
5:19 pm 17:19 Cloudy with Light Rain 78 25.6 73 22.8 85 85 ENE 6 9 30.04 1017 6 9.65604 0.35 8.89
5:36 pm 17:36 Mostly Cloudy with Light Rain 81 27.2 75 23.9 82 82 ESE 9 15 30.05 1018 10 16.0934 0.36 9.144
5:52 pm 17:52 Mostly Cloudy 81 27.2 74 23.3 79 79 E 10 17 30.04 1017 10 16.0934 0.36 9.144
6:52 pm 18:52 Cloudy 80 26.7 73 22.8 79 79 ESE 7 11 30.04 1017 10 16.0934 0 0
7:23 pm 19:23 Cloudy with Thunderstorms 79 26.1 73 22.8 82 82 ESE 9 15 30.06 1018 10 16.0934 0 0
7:40 pm 19:40 Cloudy 78 25.6 72 22.2 82 82 SE 9 15 30.06 1018 10 16.0934 0 0
7:52 pm 19:52 Cloudy 78 25.6 73 22.8 85 85 SSE 9 15 30.06 1018 10 16.0934 0 0
8:52 pm 20:52 Cloudy with Light Rain 76 24.4 72 22.2 88 88 SE 9 15 30.06 1018 10 16.0934 0.001 0.001
9:35 pm 21:35 Cloudy with Light Rain 76 24.4 72 22.2 88 88 SSE 9 15 30.07 1018 10 16.0934 0.001 0.001
9:44 pm 21:44 Cloudy with Light Rain 76 24.4 72 22.2 88 88 SE 12 19 30.05 1018 10 16.0934 0.001 0.001
9:52 pm 21:52 Cloudy 75 23.9 72 22.2 90 90 ESE 6 9 30.06 1018 10 16.0934 0.001 0.001
10:01 pm 22:01 Cloudy 76 24.4 72 22.2 88 88 ENE 3 6 30.07 1018 10 16.0934 0 0
10:25 pm 22:25 Cloudy 76 24.4 72 22.2 88 88 Calm 30.07 1018 10 16.0934 0 0
10:47 pm 22:47 Cloudy 75 24 72 22 89 89 NE 5 7 30.08 1019 10 16.0934 0 0
10:52 pm 22:52 Cloudy 76 24.4 72 22.2 88 88 NNE 3 6 30.08 1019 10 16.0934 0 0
11:28 pm 23:28 Cloudy 75 23.9 72 22.2 90 90 S 5 7 30.08 1019 10 16.0934 0 0
11:52 pm 23:52 Cloudy 76 24.4 73 22.8 91 91 SW 7 11 30.08 1019 10 16.0934 0 0

Powered by AerisWeather